Flag for France Weather past 2 weeks in Royan, France

Now
41 °F

Clear.


Feels Like: 34 °F
Forecast: 43 / 54 °F
Wind: 13 mph from Northwest

Location: Cognac Airport

Current Time: Feb 27, 2015 at 9:33:01 AM

Latest Report: Feb 27, 2015 at 9:00 AM


Visibility: N/A

Pressure: 30.24 "Hg

Humidity: 76%

Dew point: 34 °F

Location of RoyanLocation

Historic Weather in Royan — Graph

°F

Royan temperature yesterday

Maximum temperature yesterday: 55 °F (at 3:00 PM)
Minimum temperature yesterday: 48 °F (at 5:30 AM)
Average temperature yesterday: 51 °F

Past Weeks' High & Low Weather Summary

 TemperatureHumidityPressure
High57 °F (Feb 13, 1:30 PM)100% (Feb 15, 6:30 AM)30.69 "Hg (Feb 15, 6:30 AM)
Low30 °F (Feb 19, 5:30 AM)47% (Feb 21, 4:30 PM)29.65 "Hg (Feb 23, 7:00 AM)
Average45 °F82%30.06 "Hg
* Reported Feb 12 8:00 AM — Feb 27 8:30 AM, Royan, Weather by CustomWeather, © 2015

Note: Actual official high and low records may vary slightly from our data, if they occured in-between our weather recording intervals... More about our weather records

Advertising

Royan weather history for previous 24 hours

 ConditionsComfort  
Time TempWeatherWind HumidityBarometerVisibility
8:30 AM
Fri, Feb 27
41 °FClear.10 mph76%30.24 "HgN/A
8:00 AM41 °FClear.12 mph81%30.21 "HgN/A
7:30 AM43 °FClear.13 mph76%30.21 "HgN/A
7:00 AM43 °FClear.14 mph81%30.18 "HgN/A
6:30 AM43 °FClear.13 mph81%30.15 "HgN/A
6:00 AM43 °FPassing clouds.13 mph76%30.15 "HgN/A
5:30 AM45 °FOvercast.13 mph76%30.12 "HgN/A
4:30 AM45 °FClear.15 mph76%30.09 "HgN/A
4:00 AM45 °FClear.14 mph76%30.09 "HgN/A
3:30 AM45 °FClear.14 mph81%30.09 "HgN/A
3:00 AM46 °FOvercast.13 mph76%30.09 "HgN/A
2:30 AM46 °FOvercast.14 mph76%30.09 "HgN/A
2:00 AM46 °FPartly cloudy.16 mph87%30.07 "HgN/A
1:30 AM48 °FMostly cloudy.17 mph82%30.07 "HgN/A
1:00 AM48 °FLight rain. Mostly cloudy.14 mph82%30.04 "HgN/A
12:30 AM48 °FMostly cloudy.10 mph87%30.04 "HgN/A
12:00 AM48 °FLow clouds.8 mph87%30.04 "HgN/A
11:30 PM
Thu, Feb 26
48 °FPassing clouds.21 mph87%30.04 "Hg4 mi
11:00 PM50 °FMostly cloudy.17 mph94%30.01 "HgN/A
10:30 PM52 °FDrizzle. Fog.13 mph94%30.01 "Hg2 mi
10:00 PM52 °FLow clouds.10 mph94%30.01 "HgN/A
9:30 PM52 °FDrizzle. Fog.10 mph94%30.01 "Hg2 mi
9:00 PM52 °FLow clouds.10 mph94%30.01 "HgN/A
8:30 PM52 °FLight rain. Low clouds.9 mph100%30.01 "HgN/A
8:00 PM52 °FLight rain. Low clouds.9 mph100%30.01 "HgN/A
7:30 PM52 °FLight rain. Low clouds.9 mph100%30.01 "HgN/A
7:00 PM52 °FDrizzle. Fog.8 mph100%30.01 "Hg3 mi
6:30 PM54 °FDrizzle. Low clouds.7 mph94%30.04 "Hg4 mi
6:00 PM54 °FDrizzle. Fog.9 mph94%30.04 "Hg2 mi
5:30 PM54 °FFog.9 mph94%30.04 "Hg2 mi
5:00 PM54 °FCloudy.9 mph94%30.07 "HgN/A
4:30 PM54 °FMostly cloudy.10 mph88%30.07 "HgN/A
4:00 PM55 °FMostly cloudy.10 mph77%30.07 "HgN/A
3:30 PM55 °FOvercast.12 mph77%30.09 "HgN/A
3:00 PM55 °FMostly cloudy.12 mph77%30.09 "HgN/A
2:30 PM54 °FDrizzle. Mostly cloudy.10 mph82%30.12 "HgN/A
2:00 PM54 °FOvercast.15 mph82%30.12 "HgN/A
1:30 PM52 °FMostly cloudy.14 mph94%30.12 "HgN/A
1:00 PM52 °FFog.16 mph94%30.15 "Hg2 mi
12:30 PM54 °FOvercast.13 mph88%30.15 "HgN/A
12:00 PM54 °FMostly cloudy.12 mph94%30.15 "HgN/A
11:30 AM52 °FMostly cloudy.12 mph100%30.18 "HgN/A
11:00 AM52 °FFog.10 mph94%30.18 "Hg2 mi
10:30 AM52 °FFog.10 mph94%30.18 "Hg2 mi
10:00 AM52 °FDrizzle. Fog.9 mph94%30.18 "Hg3 mi
9:30 AM50 °FDrizzle. Fog.7 mph100%30.18 "Hg3 mi
9:00 AM50 °FFog.8 mph100%30.18 "Hg2 mi
Weather by CustomWeather, © 2015

See weather overviewHow to use our weather pages